TimeEDT,TemperatureF,Dew PointF,Humidity,Sea Level PressureIn,VisibilityMPH,Wind Direction,Wind SpeedMPH,Gust SpeedMPH,PrecipitationIn,Events,Conditions,WindDirDegrees,DateUTC
12:15 AM,68.0,66.2,94,29.77,7.0,SSW,9.2,-,N/A,,Overcast,210,2013-06-30 04:15:00
12:35 AM,68.0,66.2,94,29.76,8.0,SSW,8.1,-,N/A,,Overcast,210,2013-06-30 04:35:00
12:55 AM,68.0,66.2,94,29.77,9.0,SSW,9.2,-,N/A,,Overcast,210,2013-06-30 04:55:00
1:15 AM,68.0,66.2,94,29.77,9.0,SW,6.9,-,N/A,,Overcast,230,2013-06-30 05:15:00
1:35 AM,68.0,66.2,94,29.77,10.0,SSW,11.5,-,N/A,,Overcast,210,2013-06-30 05:35:00
1:55 AM,69.8,66.2,88,29.77,10.0,SSW,10.4,-,N/A,,Overcast,200,2013-06-30 05:55:00
2:15 AM,68.0,66.2,94,29.77,10.0,SSW,9.2,-,N/A,,Overcast,200,2013-06-30 06:15:00
2:35 AM,68.0,66.2,94,29.77,10.0,SW,9.2,-,N/A,,Overcast,220,2013-06-30 06:35:00
2:55 AM,68.0,66.2,94,29.77,10.0,SSW,9.2,-,N/A,,Overcast,200,2013-06-30 06:55:00
3:15 AM,68.0,66.2,94,29.77,10.0,SSW,9.2,-,N/A,,Overcast,210,2013-06-30 07:15:00
3:35 AM,68.0,66.2,94,29.77,9.0,SW,10.4,-,N/A,,Overcast,220,2013-06-30 07:35:00
3:55 AM,66.2,66.2,100,29.77,10.0,SSW,8.1,-,N/A,,Overcast,210,2013-06-30 07:55:00
4:15 AM,68.0,66.2,94,29.77,10.0,SSW,9.2,-,N/A,,Overcast,210,2013-06-30 08:15:00
4:35 AM,68.0,66.2,94,29.78,10.0,SSW,10.4,-,N/A,,Overcast,200,2013-06-30 08:35:00
4:55 AM,68.0,66.2,94,29.79,9.0,SSW,11.5,16.1,N/A,,Overcast,200,2013-06-30 08:55:00
5:15 AM,68.0,66.2,94,29.79,8.0,SSW,11.5,-,N/A,,Overcast,210,2013-06-30 09:15:00
5:35 AM,68.0,66.2,94,29.80,7.0,SSW,11.5,-,N/A,,Overcast,210,2013-06-30 09:35:00
5:55 AM,68.0,66.2,94,29.81,8.0,SW,8.1,-,N/A,,Overcast,220,2013-06-30 09:55:00
6:15 AM,68.0,66.2,94,29.82,7.0,SW,10.4,-,N/A,,Overcast,220,2013-06-30 10:15:00
6:35 AM,69.8,66.2,88,29.83,7.0,SSW,10.4,-,N/A,,Overcast,210,2013-06-30 10:35:00
6:55 AM,69.8,66.2,88,29.84,7.0,SSW,10.4,-,N/A,,Overcast,210,2013-06-30 10:55:00
7:15 AM,69.8,66.2,88,29.84,7.0,SSW,12.7,16.1,N/A,,Overcast,200,2013-06-30 11:15:00
7:35 AM,69.8,68.0,94,29.85,9.0,South,11.5,-,N/A,,Overcast,190,2013-06-30 11:35:00
7:55 AM,69.8,68.0,94,29.85,9.0,SSW,11.5,-,N/A,,Overcast,200,2013-06-30 11:55:00
8:15 AM,69.8,68.0,94,29.85,10.0,SSW,11.5,-,N/A,,Overcast,200,2013-06-30 12:15:00
8:35 AM,71.6,68.0,88,29.86,10.0,SSW,11.5,16.1,N/A,,Overcast,200,2013-06-30 12:35:00
8:55 AM,71.6,69.8,94,29.86,9.0,SSW,10.4,18.4,N/A,,Overcast,210,2013-06-30 12:55:00
9:15 AM,71.6,68.0,88,29.87,10.0,SSW,12.7,-,N/A,,Overcast,210,2013-06-30 13:15:00
9:35 AM,71.6,68.0,88,29.86,10.0,SSW,12.7,-,N/A,,Overcast,210,2013-06-30 13:35:00
9:55 AM,71.6,69.8,94,29.86,10.0,SSW,10.4,-,N/A,,Overcast,200,2013-06-30 13:55:00
10:15 AM,71.6,68.0,88,29.87,9.0,South,10.4,-,N/A,,Overcast,190,2013-06-30 14:15:00
10:35 AM,71.6,69.8,94,29.87,7.0,SSW,10.4,-,N/A,,Overcast,200,2013-06-30 14:35:00
10:55 AM,71.6,68.0,88,29.88,7.0,SSW,10.4,-,N/A,,Overcast,200,2013-06-30 14:55:00
11:15 AM,71.6,68.0,88,29.88,7.0,SSW,10.4,-,N/A,,Overcast,200,2013-06-30 15:15:00
11:35 AM,71.6,68.0,88,29.88,8.0,SSW,10.4,-,N/A,,Overcast,200,2013-06-30 15:35:00
11:55 AM,71.6,69.8,94,29.89,9.0,SSW,10.4,-,N/A,,Overcast,210,2013-06-30 15:55:00
12:15 PM,71.6,69.8,94,29.89,10.0,SSW,11.5,-,N/A,,Overcast,200,2013-06-30 16:15:00
12:35 PM,71.6,68.0,88,29.89,10.0,SSW,11.5,-,N/A,,Overcast,210,2013-06-30 16:35:00
12:55 PM,71.6,68.0,88,29.89,10.0,SW,11.5,-,N/A,,Overcast,220,2013-06-30 16:55:00
1:15 PM,71.6,69.8,94,29.89,10.0,SW,12.7,-,N/A,,Mostly Cloudy,220,2013-06-30 17:15:00
1:35 PM,73.4,69.8,88,29.89,10.0,SW,13.8,-,N/A,,Mostly Cloudy,220,2013-06-30 17:35:00
1:55 PM,73.4,69.8,88,29.89,10.0,SW,16.1,-,N/A,,Mostly Cloudy,230,2013-06-30 17:55:00
2:15 PM,75.2,69.8,83,29.89,10.0,SW,17.3,24.2,N/A,,Scattered Clouds,220,2013-06-30 18:15:00
2:35 PM,73.4,69.8,88,29.90,9.0,SW,15.0,21.9,N/A,,Mostly Cloudy,220,2013-06-30 18:35:00
2:55 PM,73.4,69.8,88,29.90,8.0,SSW,17.3,-,N/A,,Partly Cloudy,210,2013-06-30 18:55:00
3:15 PM,73.4,68.0,83,29.90,9.0,SSW,16.1,21.9,N/A,,Clear,200,2013-06-30 19:15:00
3:35 PM,73.4,68.0,83,29.91,10.0,SSW,15.0,21.9,N/A,,Clear,210,2013-06-30 19:35:00
3:55 PM,73.4,66.2,78,29.91,10.0,SSW,15.0,21.9,N/A,,Clear,210,2013-06-30 19:55:00
4:15 PM,73.4,66.2,78,29.91,10.0,SSW,17.3,-,N/A,,Clear,210,2013-06-30 20:15:00
4:35 PM,73.4,66.2,78,29.91,10.0,SW,13.8,-,N/A,,Clear,220,2013-06-30 20:35:00
4:55 PM,71.6,66.2,83,29.91,10.0,SSW,10.4,-,N/A,,Clear,210,2013-06-30 20:55:00
5:15 PM,73.4,66.2,78,29.92,10.0,SSW,11.5,-,N/A,,Clear,210,2013-06-30 21:15:00
5:35 PM,73.4,66.2,78,29.92,10.0,SSW,10.4,-,N/A,,Clear,210,2013-06-30 21:35:00
5:55 PM,71.6,66.2,83,29.92,10.0,SSW,12.7,17.3,N/A,,Clear,210,2013-06-30 21:55:00
6:15 PM,71.6,66.2,83,29.92,10.0,SSW,10.4,-,N/A,,Clear,200,2013-06-30 22:15:00
6:35 PM,69.8,66.2,88,29.94,10.0,SSW,10.4,17.3,N/A,,Mostly Cloudy,200,2013-06-30 22:35:00
6:55 PM,69.8,66.2,88,29.93,10.0,South,12.7,-,N/A,,Overcast,190,2013-06-30 22:55:00
7:15 PM,69.8,66.2,88,29.94,10.0,South,17.3,24.2,N/A,,Overcast,190,2013-06-30 23:15:00
7:35 PM,69.8,66.2,88,29.95,10.0,South,11.5,20.7,N/A,,Overcast,190,2013-06-30 23:35:00
7:55 PM,69.8,66.2,88,29.96,8.0,SSW,11.5,-,N/A,,Overcast,200,2013-06-30 23:55:00
8:15 PM,69.8,66.2,88,29.96,8.0,SSW,9.2,-,N/A,,Overcast,200,2013-07-01 00:15:00
8:35 PM,69.8,66.2,88,29.95,8.0,South,9.2,-,N/A,,Overcast,190,2013-07-01 00:35:00
8:55 PM,69.8,66.2,88,29.96,8.0,SSW,10.4,-,N/A,,Overcast,200,2013-07-01 00:55:00
9:15 PM,69.8,66.2,88,29.97,5.0,SSW,8.1,-,N/A,,Overcast,210,2013-07-01 01:15:00
9:35 PM,69.8,66.2,88,29.97,5.0,SSW,9.2,-,N/A,,Overcast,200,2013-07-01 01:35:00
9:55 PM,68.0,66.2,94,29.97,7.0,South,9.2,-,N/A,,Overcast,190,2013-07-01 01:55:00
10:15 PM,69.8,68.0,94,29.97,10.0,South,9.2,-,N/A,,Overcast,190,2013-07-01 02:15:00
10:35 PM,69.8,68.0,94,29.97,8.0,South,10.4,-,N/A,,Overcast,190,2013-07-01 02:35:00
10:55 PM,69.8,68.0,94,29.98,10.0,South,9.2,-,N/A,,Overcast,190,2013-07-01 02:55:00
11:15 PM,69.8,68.0,94,29.98,10.0,South,10.4,-,N/A,,Overcast,190,2013-07-01 03:15:00
11:35 PM,69.8,66.2,88,29.98,10.0,South,10.4,16.1,N/A,,Overcast,190,2013-07-01 03:35:00
11:55 PM,69.8,66.2,88,29.98,10.0,South,10.4,18.4,N/A,,Overcast,190,2013-07-01 03:55:00